Year,Month,Day,Hour,Minute,Value (Times are PST for temperature in C)
2012,05,02,00,00,4.20
2012,05,02,00,01,4.20
2012,05,02,00,02,4.20
2012,05,02,00,03,4.10
2012,05,02,00,04,4.10
2012,05,02,00,05,4.10
2012,05,02,00,06,4.10
2012,05,02,00,07,4.10
2012,05,02,00,08,4.10
2012,05,02,00,09,4.10
2012,05,02,00,10,4.10
2012,05,02,00,11,4.00
2012,05,02,00,12,4.00
2012,05,02,00,13,4.00
2012,05,02,00,14,4.00
2012,05,02,00,15,4.00
2012,05,02,00,16,4.00
2012,05,02,00,17,4.00
2012,05,02,00,18,4.00
2012,05,02,00,19,4.00
2012,05,02,00,20,4.00
2012,05,02,00,21,4.00
2012,05,02,00,22,3.90
2012,05,02,00,23,3.90
2012,05,02,00,24,3.90
2012,05,02,00,25,3.90
2012,05,02,00,26,3.90
2012,05,02,00,27,3.90
2012,05,02,00,28,3.90
2012,05,02,00,29,3.90
2012,05,02,00,30,3.90
2012,05,02,00,31,3.90
2012,05,02,00,32,3.90
2012,05,02,00,33,3.80
2012,05,02,00,34,3.80
2012,05,02,00,35,3.80
2012,05,02,00,36,3.80
2012,05,02,00,37,3.80
2012,05,02,00,38,3.80
2012,05,02,00,39,3.80
2012,05,02,00,40,3.80
2012,05,02,00,41,3.80
2012,05,02,00,42,3.80
2012,05,02,00,43,3.80
2012,05,02,00,44,3.80
2012,05,02,00,45,3.80
2012,05,02,00,46,3.70
2012,05,02,00,47,3.70
2012,05,02,00,48,3.70
2012,05,02,00,49,3.70
2012,05,02,00,50,3.70
2012,05,02,00,51,3.70
2012,05,02,00,52,3.70
2012,05,02,00,53,3.70
2012,05,02,00,54,3.70
2012,05,02,00,55,3.70
2012,05,02,00,56,3.70
2012,05,02,00,57,3.70
2012,05,02,00,58,3.70
2012,05,02,00,59,3.70
2012,05,02,01,00,3.70
2012,05,02,01,01,3.70
2012,05,02,01,02,3.70
2012,05,02,01,03,3.60
2012,05,02,01,04,3.60
2012,05,02,01,05,3.60
2012,05,02,01,06,3.60
2012,05,02,01,07,3.60
2012,05,02,01,08,3.60
2012,05,02,01,09,3.60
2012,05,02,01,10,3.60
2012,05,02,01,11,3.50
2012,05,02,01,12,3.50
2012,05,02,01,13,3.60
2012,05,02,01,14,3.60
2012,05,02,01,15,3.60
2012,05,02,01,16,3.60
2012,05,02,01,17,3.60
2012,05,02,01,18,3.50
2012,05,02,01,19,3.50
2012,05,02,01,20,3.50
2012,05,02,01,21,3.50
2012,05,02,01,22,3.50
2012,05,02,01,23,3.50
2012,05,02,01,24,3.50
2012,05,02,01,25,3.50
2012,05,02,01,26,3.50
2012,05,02,01,27,3.40
2012,05,02,01,28,3.40
2012,05,02,01,29,3.40
2012,05,02,01,30,3.40
2012,05,02,01,31,3.40
2012,05,02,01,32,3.40
2012,05,02,01,33,3.40
2012,05,02,01,34,3.40
2012,05,02,01,35,3.40
2012,05,02,01,36,3.40
2012,05,02,01,37,3.40
2012,05,02,01,38,3.40
2012,05,02,01,39,3.40
2012,05,02,01,40,3.40
2012,05,02,01,41,3.30
2012,05,02,01,42,3.30
2012,05,02,01,43,3.30
2012,05,02,01,44,3.30
2012,05,02,01,45,3.30
2012,05,02,01,46,3.30
2012,05,02,01,47,3.30
2012,05,02,01,48,3.30
2012,05,02,01,49,3.30
2012,05,02,01,50,3.20
2012,05,02,01,51,3.20
2012,05,02,01,52,3.20
2012,05,02,01,53,3.20
2012,05,02,01,54,3.20
2012,05,02,01,55,3.20
2012,05,02,01,56,3.20
2012,05,02,01,57,3.20
2012,05,02,01,58,3.10
2012,05,02,01,59,3.10
2012,05,02,02,00,3.10
2012,05,02,02,01,3.10
2012,05,02,02,02,3.10
2012,05,02,02,03,3.10
2012,05,02,02,04,3.10
2012,05,02,02,05,3.10
2012,05,02,02,06,3.10
2012,05,02,02,07,3.10
2012,05,02,02,08,3.10
2012,05,02,02,09,3.10
2012,05,02,02,10,3.00
2012,05,02,02,11,3.00
2012,05,02,02,12,3.00
2012,05,02,02,13,2.90
2012,05,02,02,14,2.90
2012,05,02,02,15,2.90
2012,05,02,02,16,2.90
2012,05,02,02,17,2.90
2012,05,02,02,18,2.90
2012,05,02,02,19,2.80
2012,05,02,02,20,2.80
2012,05,02,02,21,2.80
2012,05,02,02,22,2.80
2012,05,02,02,23,2.80
2012,05,02,02,24,2.80
2012,05,02,02,25,2.80
2012,05,02,02,26,2.80
2012,05,02,02,27,2.80
2012,05,02,02,28,2.80
2012,05,02,02,29,2.80
2012,05,02,02,30,2.80
2012,05,02,02,31,2.80
2012,05,02,02,32,2.80
2012,05,02,02,33,2.70
2012,05,02,02,34,2.70
2012,05,02,02,35,2.70
2012,05,02,02,36,2.70
2012,05,02,02,37,2.70
2012,05,02,02,38,2.70
2012,05,02,02,39,2.70
2012,05,02,02,40,2.70
2012,05,02,02,41,2.70
2012,05,02,02,42,2.70
2012,05,02,02,43,2.70
2012,05,02,02,44,2.60
2012,05,02,02,45,2.60
2012,05,02,02,46,2.60
2012,05,02,02,47,2.60
2012,05,02,02,48,2.60
2012,05,02,02,49,2.60
2012,05,02,02,50,2.60
2012,05,02,02,51,2.60
2012,05,02,02,52,2.60
2012,05,02,02,53,2.60
2012,05,02,02,54,2.60
2012,05,02,02,55,2.60
2012,05,02,02,56,2.60
2012,05,02,02,57,2.60
2012,05,02,02,58,2.60
2012,05,02,02,59,2.60
2012,05,02,03,00,2.60
2012,05,02,03,01,2.60
2012,05,02,03,02,2.60
2012,05,02,03,03,2.60
2012,05,02,03,04,2.60
2012,05,02,03,05,2.60
2012,05,02,03,06,2.60
2012,05,02,03,07,2.60
2012,05,02,03,08,2.60
2012,05,02,03,09,2.60
2012,05,02,03,10,2.60
2012,05,02,03,11,2.60
2012,05,02,03,12,2.60
2012,05,02,03,13,2.60
2012,05,02,03,14,2.60
2012,05,02,03,15,2.60
2012,05,02,03,16,2.60
2012,05,02,03,17,2.60
2012,05,02,03,18,2.60
2012,05,02,03,19,2.60
2012,05,02,03,20,2.60
2012,05,02,03,21,2.60
2012,05,02,03,22,2.60
2012,05,02,03,23,2.60
2012,05,02,03,24,2.60
2012,05,02,03,25,2.60
2012,05,02,03,26,2.60
2012,05,02,03,27,2.60
2012,05,02,03,28,2.60
2012,05,02,03,29,2.50
2012,05,02,03,30,2.50
2012,05,02,03,31,2.50
2012,05,02,03,32,2.50
2012,05,02,03,33,2.50
2012,05,02,03,34,2.40
2012,05,02,03,35,2.40
2012,05,02,03,36,2.40
2012,05,02,03,37,2.40
2012,05,02,03,38,2.40
2012,05,02,03,39,2.40
2012,05,02,03,40,2.40
2012,05,02,03,41,2.40
2012,05,02,03,42,2.40
2012,05,02,03,43,2.40
2012,05,02,03,44,2.40
2012,05,02,03,45,2.40
2012,05,02,03,46,2.40
2012,05,02,03,47,2.40
2012,05,02,03,48,2.40
2012,05,02,03,49,2.40
2012,05,02,03,50,2.40
2012,05,02,03,51,2.40
2012,05,02,03,52,2.40
2012,05,02,03,53,2.40
2012,05,02,03,54,2.40
2012,05,02,03,55,2.40
2012,05,02,03,56,2.40
2012,05,02,03,57,2.40
2012,05,02,03,58,2.40
2012,05,02,03,59,2.40
2012,05,02,04,00,2.40
2012,05,02,04,01,2.40
2012,05,02,04,02,2.40
2012,05,02,04,03,2.40
2012,05,02,04,04,2.40
2012,05,02,04,05,2.40
2012,05,02,04,06,2.40
2012,05,02,04,07,2.40
2012,05,02,04,08,2.40
2012,05,02,04,09,2.40
2012,05,02,04,10,2.40
2012,05,02,04,11,2.40
2012,05,02,04,12,2.40
2012,05,02,04,13,2.40
2012,05,02,04,14,2.40
2012,05,02,04,15,2.40
2012,05,02,04,16,2.40
2012,05,02,04,17,2.40
2012,05,02,04,18,2.40
2012,05,02,04,19,2.40
2012,05,02,04,20,2.40
2012,05,02,04,21,2.40
2012,05,02,04,22,2.50
2012,05,02,04,23,2.50
2012,05,02,04,24,2.50
2012,05,02,04,25,2.50
2012,05,02,04,26,2.50
2012,05,02,04,27,2.50
2012,05,02,04,28,2.50
2012,05,02,04,29,2.50
2012,05,02,04,30,2.60
2012,05,02,04,31,2.60
2012,05,02,04,32,2.60
2012,05,02,04,33,2.70
2012,05,02,04,34,2.70
2012,05,02,04,35,2.70
2012,05,02,04,36,2.70
2012,05,02,04,37,2.70
2012,05,02,04,38,2.70
2012,05,02,04,39,2.70
2012,05,02,04,40,2.70
2012,05,02,04,41,2.70
2012,05,02,04,42,2.70
2012,05,02,04,43,2.60
2012,05,02,04,44,2.60
2012,05,02,04,45,2.60
2012,05,02,04,46,2.60
2012,05,02,04,47,2.60
2012,05,02,04,48,2.60
2012,05,02,04,49,2.60
2012,05,02,04,50,2.60
2012,05,02,04,51,2.60
2012,05,02,04,52,2.60
2012,05,02,04,53,2.60
2012,05,02,04,54,2.60
2012,05,02,04,55,2.60
2012,05,02,04,56,2.60
2012,05,02,04,57,2.60
2012,05,02,04,58,2.60
2012,05,02,04,59,2.60
2012,05,02,05,00,2.60
2012,05,02,05,01,2.60
2012,05,02,05,02,2.60
2012,05,02,05,03,2.60
2012,05,02,05,04,2.60
2012,05,02,05,05,2.50
2012,05,02,05,06,2.50
2012,05,02,05,07,2.50
2012,05,02,05,08,2.50
2012,05,02,05,09,2.50
2012,05,02,05,10,2.50
2012,05,02,05,11,2.50
2012,05,02,05,12,2.40
2012,05,02,05,13,2.40
2012,05,02,05,14,2.40
2012,05,02,05,15,2.40
2012,05,02,05,16,2.40
2012,05,02,05,17,2.40
2012,05,02,05,18,2.40
2012,05,02,05,19,2.40
2012,05,02,05,20,2.40
2012,05,02,05,21,2.50
2012,05,02,05,22,2.50
2012,05,02,05,23,2.50
2012,05,02,05,24,2.50
2012,05,02,05,25,2.40
2012,05,02,05,26,2.40
2012,05,02,05,27,2.40
2012,05,02,05,28,2.40
2012,05,02,05,29,2.40
2012,05,02,05,30,2.40
2012,05,02,05,31,2.40
2012,05,02,05,32,2.30
2012,05,02,05,33,2.30
2012,05,02,05,34,2.30
2012,05,02,05,35,2.30
2012,05,02,05,36,2.30
2012,05,02,05,37,2.30
2012,05,02,05,38,2.30
2012,05,02,05,39,2.30
2012,05,02,05,40,2.30
2012,05,02,05,41,2.30
2012,05,02,05,42,2.30
2012,05,02,05,43,2.30
2012,05,02,05,44,2.30
2012,05,02,05,45,2.30
2012,05,02,05,46,2.30
2012,05,02,05,47,2.30
2012,05,02,05,48,2.30
2012,05,02,05,49,2.30
2012,05,02,05,50,2.30
2012,05,02,05,51,2.30
2012,05,02,05,52,2.20
2012,05,02,05,53,2.20
2012,05,02,05,54,2.20
2012,05,02,05,55,2.20
2012,05,02,05,56,2.20
2012,05,02,05,57,2.10
2012,05,02,05,58,2.10
2012,05,02,05,59,2.10
2012,05,02,06,00,2.10
2012,05,02,06,01,2.10
2012,05,02,06,02,2.00
2012,05,02,06,03,2.00
2012,05,02,06,04,2.00
2012,05,02,06,05,2.00
2012,05,02,06,06,2.00
2012,05,02,06,07,1.90
2012,05,02,06,08,1.90
2012,05,02,06,09,1.90
2012,05,02,06,10,1.90
2012,05,02,06,11,1.90
2012,05,02,06,12,1.90
2012,05,02,06,13,1.90
2012,05,02,06,14,1.90
2012,05,02,06,15,1.90
2012,05,02,06,16,1.90
2012,05,02,06,17,1.80
2012,05,02,06,18,1.80
2012,05,02,06,19,1.80
2012,05,02,06,20,1.80
2012,05,02,06,21,1.80
2012,05,02,06,22,1.80
2012,05,02,06,23,1.80
2012,05,02,06,24,1.80
2012,05,02,06,25,1.80
2012,05,02,06,26,1.80
2012,05,02,06,27,1.80
2012,05,02,06,28,1.80
2012,05,02,06,29,1.80
2012,05,02,06,30,1.80
2012,05,02,06,31,1.80
2012,05,02,06,32,1.80
2012,05,02,06,33,1.80
2012,05,02,06,34,1.90
2012,05,02,06,35,1.90
2012,05,02,06,36,1.90
2012,05,02,06,37,1.90
2012,05,02,06,38,1.90
2012,05,02,06,39,1.90
2012,05,02,06,40,1.90
2012,05,02,06,41,2.00
2012,05,02,06,42,2.00
2012,05,02,06,43,2.00
2012,05,02,06,44,2.00
2012,05,02,06,45,2.00
2012,05,02,06,46,2.00
2012,05,02,06,47,2.00
2012,05,02,06,48,2.00
2012,05,02,06,49,2.00
2012,05,02,06,50,2.00
2012,05,02,06,51,2.00
2012,05,02,06,52,2.00
2012,05,02,06,53,2.00
2012,05,02,06,54,2.00
2012,05,02,06,55,2.00
2012,05,02,06,56,2.00
2012,05,02,06,57,2.00
2012,05,02,06,58,2.00
2012,05,02,06,59,2.10
2012,05,02,07,00,2.10
2012,05,02,07,01,2.10
2012,05,02,07,02,2.10
2012,05,02,07,03,2.10
2012,05,02,07,04,2.10
2012,05,02,07,05,2.10
2012,05,02,07,06,2.00
2012,05,02,07,07,2.10
2012,05,02,07,08,2.10
2012,05,02,07,09,2.10
2012,05,02,07,10,2.00
2012,05,02,07,11,2.00
2012,05,02,07,12,2.00
2012,05,02,07,13,2.00
2012,05,02,07,14,2.00
2012,05,02,07,15,2.10
2012,05,02,07,16,2.10
2012,05,02,07,17,2.10
2012,05,02,07,18,2.10
2012,05,02,07,19,2.10
2012,05,02,07,20,2.10
2012,05,02,07,21,2.10
2012,05,02,07,22,2.10
2012,05,02,07,23,2.10
2012,05,02,07,24,2.10
2012,05,02,07,25,2.10
2012,05,02,07,26,2.10
2012,05,02,07,27,2.10
2012,05,02,07,28,2.10
2012,05,02,07,29,2.10
2012,05,02,07,30,2.10
2012,05,02,07,31,2.10
2012,05,02,07,32,2.10
2012,05,02,07,33,2.20
2012,05,02,07,34,2.20
2012,05,02,07,35,2.20
2012,05,02,07,36,2.20
2012,05,02,07,37,2.20
2012,05,02,07,38,2.20
2012,05,02,07,39,2.20
2012,05,02,07,40,2.20
2012,05,02,07,41,2.20
2012,05,02,07,42,2.30
2012,05,02,07,43,2.30
2012,05,02,07,44,2.30
2012,05,02,07,45,2.30
2012,05,02,07,46,2.30
2012,05,02,07,47,2.30
2012,05,02,07,48,2.30
2012,05,02,07,49,2.40
2012,05,02,07,50,2.40
2012,05,02,07,51,2.40
2012,05,02,07,52,2.40
2012,05,02,07,53,2.50
2012,05,02,07,54,2.50
2012,05,02,07,55,2.50
2012,05,02,07,56,2.60
2012,05,02,07,57,2.60
2012,05,02,07,58,2.60
2012,05,02,07,59,2.60
2012,05,02,08,00,2.60
2012,05,02,08,01,2.70
2012,05,02,08,02,2.70
2012,05,02,08,03,2.70
2012,05,02,08,04,2.80
2012,05,02,08,05,2.80
2012,05,02,08,06,2.80
2012,05,02,08,07,2.80
2012,05,02,08,08,2.80
2012,05,02,08,09,2.90
2012,05,02,08,10,2.90
2012,05,02,08,11,2.90
2012,05,02,08,12,3.00
2012,05,02,08,13,3.00
2012,05,02,08,14,3.10
2012,05,02,08,15,3.10
2012,05,02,08,16,3.10
2012,05,02,08,17,3.20
2012,05,02,08,18,3.20
2012,05,02,08,19,3.20
2012,05,02,08,20,3.20
2012,05,02,08,21,3.30
2012,05,02,08,22,3.30
2012,05,02,08,23,3.30
2012,05,02,08,24,3.40
2012,05,02,08,25,3.40
2012,05,02,08,26,3.40
2012,05,02,08,27,3.50
2012,05,02,08,28,3.50
2012,05,02,08,29,3.50
2012,05,02,08,30,3.60
2012,05,02,08,31,3.60
2012,05,02,08,32,3.60
2012,05,02,08,33,3.70
2012,05,02,08,34,3.70
2012,05,02,08,35,3.70
2012,05,02,08,36,3.80
2012,05,02,08,37,3.80
2012,05,02,08,38,3.80
2012,05,02,08,39,3.90
2012,05,02,08,40,3.90
2012,05,02,08,41,4.00
2012,05,02,08,42,4.00
2012,05,02,08,43,4.00
2012,05,02,08,44,4.10
2012,05,02,08,45,4.10
2012,05,02,08,46,4.10
2012,05,02,08,47,4.20
2012,05,02,08,48,4.20
2012,05,02,08,49,4.20
2012,05,02,08,50,4.30
2012,05,02,08,51,4.30
2012,05,02,08,52,4.30
2012,05,02,08,53,4.30
2012,05,02,08,54,4.40
2012,05,02,08,55,4.40
2012,05,02,08,56,4.40
2012,05,02,08,57,4.50
2012,05,02,08,58,4.50
2012,05,02,08,59,4.60
2012,05,02,09,00,4.70
2012,05,02,09,01,4.80
2012,05,02,09,02,4.90
2012,05,02,09,03,5.00
2012,05,02,09,04,5.10
2012,05,02,09,05,5.20
2012,05,02,09,06,5.40
2012,05,02,09,07,5.50
2012,05,02,09,08,5.60
2012,05,02,09,09,5.80
2012,05,02,09,10,5.90
2012,05,02,09,11,6.00
2012,05,02,09,12,6.10
2012,05,02,09,13,6.20
2012,05,02,09,14,6.30
2012,05,02,09,15,6.40
2012,05,02,09,16,6.50
2012,05,02,09,17,6.60
2012,05,02,09,18,6.70
2012,05,02,09,19,6.80
2012,05,02,09,20,6.90
2012,05,02,09,21,6.90
2012,05,02,09,22,7.00
2012,05,02,09,23,7.10
2012,05,02,09,24,7.10
2012,05,02,09,25,7.20
2012,05,02,09,26,7.20
2012,05,02,09,27,7.20
2012,05,02,09,28,7.30
2012,05,02,09,29,7.30
2012,05,02,09,30,7.30
2012,05,02,09,31,7.40
2012,05,02,09,32,7.40
2012,05,02,09,33,7.40
2012,05,02,09,34,7.40
2012,05,02,09,35,7.50
2012,05,02,09,36,7.50
2012,05,02,09,37,7.50
2012,05,02,09,38,7.50
2012,05,02,09,39,7.60
2012,05,02,09,40,7.60
2012,05,02,09,41,7.60
2012,05,02,09,42,7.60
2012,05,02,09,43,7.60
2012,05,02,09,44,7.60
2012,05,02,09,45,7.60
2012,05,02,09,46,7.60
2012,05,02,09,47,7.60
2012,05,02,09,48,7.60
2012,05,02,09,49,7.60
2012,05,02,09,50,7.60
2012,05,02,09,51,7.60
2012,05,02,09,52,7.60
2012,05,02,09,53,7.60
2012,05,02,09,54,7.60
2012,05,02,09,55,7.60
2012,05,02,09,56,7.70
2012,05,02,09,57,7.70
2012,05,02,09,58,7.70
2012,05,02,09,59,7.70
2012,05,02,10,00,7.70
2012,05,02,10,01,7.70
2012,05,02,10,02,7.70
2012,05,02,10,03,7.70
2012,05,02,10,04,7.70
2012,05,02,10,05,7.70
2012,05,02,10,06,7.70
2012,05,02,10,07,7.70
2012,05,02,10,08,7.70
2012,05,02,10,09,7.70
2012,05,02,10,10,7.80
2012,05,02,10,11,7.80
2012,05,02,10,12,7.80
2012,05,02,10,13,7.90
2012,05,02,10,14,7.90
2012,05,02,10,15,8.00
2012,05,02,10,16,8.00
2012,05,02,10,17,8.00
2012,05,02,10,18,8.10
2012,05,02,10,19,8.10
2012,05,02,10,20,8.10
2012,05,02,10,21,8.10
2012,05,02,10,22,8.10
2012,05,02,10,23,8.10
2012,05,02,10,24,8.10
2012,05,02,10,25,8.20
2012,05,02,10,26,8.20
2012,05,02,10,27,8.20
2012,05,02,10,28,8.20
2012,05,02,10,29,8.20
2012,05,02,10,30,8.20
2012,05,02,10,31,8.20
2012,05,02,10,32,8.30
2012,05,02,10,33,8.30
2012,05,02,10,34,8.30
2012,05,02,10,35,8.40
2012,05,02,10,36,8.40
2012,05,02,10,37,8.40
2012,05,02,10,38,8.50
2012,05,02,10,39,8.50
2012,05,02,10,40,8.50
2012,05,02,10,41,8.60
2012,05,02,10,42,8.60
2012,05,02,10,43,8.60
2012,05,02,10,44,8.70
2012,05,02,10,45,8.70
2012,05,02,10,46,8.70
2012,05,02,10,47,8.70
2012,05,02,10,48,8.80
2012,05,02,10,49,8.80
2012,05,02,10,50,8.80
2012,05,02,10,51,8.80
2012,05,02,10,52,8.80
2012,05,02,10,53,8.80
2012,05,02,10,54,8.80
2012,05,02,10,55,8.80
2012,05,02,10,56,8.80
2012,05,02,10,57,8.80
2012,05,02,10,58,8.80
2012,05,02,10,59,8.80
2012,05,02,11,00,8.90
2012,05,02,11,01,8.90
2012,05,02,11,02,8.90
2012,05,02,11,03,8.90
2012,05,02,11,04,9.00
2012,05,02,11,05,8.90
2012,05,02,11,06,8.90
2012,05,02,11,07,8.90
2012,05,02,11,08,8.90
2012,05,02,11,09,8.90
2012,05,02,11,10,8.90
2012,05,02,11,11,8.90
2012,05,02,11,12,8.90
2012,05,02,11,13,8.80
2012,05,02,11,14,8.80
2012,05,02,11,15,8.80
2012,05,02,11,16,8.80
2012,05,02,11,17,8.70
2012,05,02,11,18,8.70
2012,05,02,11,19,8.60
2012,05,02,11,20,8.50
2012,05,02,11,21,8.50
2012,05,02,11,22,8.40
2012,05,02,11,23,8.30
2012,05,02,11,24,8.20
2012,05,02,11,25,8.10
2012,05,02,11,26,8.00
2012,05,02,11,27,8.00
2012,05,02,11,28,7.90
2012,05,02,11,29,7.80
2012,05,02,11,30,7.80
2012,05,02,11,31,7.70
2012,05,02,11,32,7.60
2012,05,02,11,33,7.60
2012,05,02,11,34,7.60
2012,05,02,11,35,7.50
2012,05,02,11,36,7.50
2012,05,02,11,37,7.50
2012,05,02,11,38,7.50
2012,05,02,11,39,7.50
2012,05,02,11,40,7.50
2012,05,02,11,41,7.50
2012,05,02,11,42,7.50
2012,05,02,11,43,7.40
2012,05,02,11,44,7.40
2012,05,02,11,45,7.30
2012,05,02,11,46,7.30
2012,05,02,11,47,7.30
2012,05,02,11,48,7.20
2012,05,02,11,49,7.20
2012,05,02,11,50,7.20
2012,05,02,11,51,7.10
2012,05,02,11,52,7.10
2012,05,02,11,53,7.00
2012,05,02,11,54,7.00
2012,05,02,11,55,7.00
2012,05,02,11,56,7.00
2012,05,02,11,57,7.00
2012,05,02,11,58,7.00
2012,05,02,11,59,7.00
2012,05,02,12,00,7.00
2012,05,02,12,01,7.00
2012,05,02,12,02,7.10
2012,05,02,12,03,7.20
2012,05,02,12,04,7.20
2012,05,02,12,05,7.20
2012,05,02,12,06,7.30
2012,05,02,12,07,7.40
2012,05,02,12,08,7.40
2012,05,02,12,09,7.60
2012,05,02,12,10,7.60
2012,05,02,12,11,7.70
2012,05,02,12,12,7.70
2012,05,02,12,13,7.80
2012,05,02,12,14,7.80
2012,05,02,12,15,7.90
2012,05,02,12,16,7.90
2012,05,02,12,17,8.00
2012,05,02,12,18,8.00
2012,05,02,12,19,8.10
2012,05,02,12,20,8.10
2012,05,02,12,21,8.10
2012,05,02,12,22,8.20
2012,05,02,12,23,8.20
2012,05,02,12,24,8.30
2012,05,02,12,25,8.30
2012,05,02,12,26,8.40
2012,05,02,12,27,8.50
2012,05,02,12,28,8.50
2012,05,02,12,29,8.60
2012,05,02,12,30,8.60
2012,05,02,12,31,8.70
2012,05,02,12,32,8.70
2012,05,02,12,33,8.70
2012,05,02,12,34,8.70
2012,05,02,12,35,8.80
2012,05,02,12,36,8.80
2012,05,02,12,37,8.80
2012,05,02,12,38,8.80
2012,05,02,12,39,8.80
2012,05,02,12,40,8.80
2012,05,02,12,41,8.80
2012,05,02,12,42,8.80
2012,05,02,12,43,8.80
2012,05,02,12,44,8.80
2012,05,02,12,45,8.90
2012,05,02,12,46,8.90
2012,05,02,12,47,9.00
2012,05,02,12,48,9.10
2012,05,02,12,49,9.10
2012,05,02,12,50,9.10
2012,05,02,12,51,9.20
2012,05,02,12,52,9.20
2012,05,02,12,53,9.30
2012,05,02,12,54,9.30
2012,05,02,12,55,9.30
2012,05,02,12,56,9.30
2012,05,02,12,57,9.30
2012,05,02,12,58,9.30
2012,05,02,12,59,9.30
2012,05,02,13,00,9.30
2012,05,02,13,01,9.30
2012,05,02,13,02,9.40
2012,05,02,13,03,9.40
2012,05,02,13,04,9.30
2012,05,02,13,05,9.40
2012,05,02,13,06,9.40
2012,05,02,13,07,9.40
2012,05,02,13,08,9.50
2012,05,02,13,09,9.60
2012,05,02,13,10,9.60
2012,05,02,13,11,9.60
2012,05,02,13,12,9.70
2012,05,02,13,13,9.70
2012,05,02,13,14,9.70
2012,05,02,13,15,9.80
2012,05,02,13,16,9.80
2012,05,02,13,17,9.90
2012,05,02,13,18,10.00
2012,05,02,13,19,10.00
2012,05,02,13,20,10.10
2012,05,02,13,21,10.10
2012,05,02,13,22,10.10
2012,05,02,13,23,10.20
2012,05,02,13,24,10.20
2012,05,02,13,25,10.20
2012,05,02,13,26,10.10
2012,05,02,13,27,10.10
2012,05,02,13,28,10.10
2012,05,02,13,29,10.10
2012,05,02,13,30,10.10
2012,05,02,13,31,10.10
2012,05,02,13,32,10.10
2012,05,02,13,33,10.10
2012,05,02,13,34,10.10
2012,05,02,13,35,10.00
2012,05,02,13,36,10.10
2012,05,02,13,37,10.10
2012,05,02,13,38,10.10
2012,05,02,13,39,10.10
2012,05,02,13,40,10.10
2012,05,02,13,41,10.10
2012,05,02,13,42,10.10
2012,05,02,13,43,10.10
2012,05,02,13,44,10.10
2012,05,02,13,45,10.20
2012,05,02,13,46,10.10
2012,05,02,13,47,10.20
2012,05,02,13,48,10.10
2012,05,02,13,49,10.10
2012,05,02,13,50,10.10
2012,05,02,13,51,10.00
2012,05,02,13,52,10.00
2012,05,02,13,53,9.90
2012,05,02,13,54,9.80
2012,05,02,13,55,9.80
2012,05,02,13,56,9.80
2012,05,02,13,57,9.80
2012,05,02,13,58,9.80
2012,05,02,13,59,9.80
2012,05,02,14,00,9.90
2012,05,02,14,01,10.00
2012,05,02,14,02,10.00
2012,05,02,14,03,10.10
2012,05,02,14,04,10.10
2012,05,02,14,05,10.20
2012,05,02,14,06,10.20
2012,05,02,14,07,10.30
2012,05,02,14,08,10.30
2012,05,02,14,09,10.30
2012,05,02,14,10,10.40
2012,05,02,14,11,10.40
2012,05,02,14,12,10.50
2012,05,02,14,13,10.50
2012,05,02,14,14,10.60
2012,05,02,14,15,10.60
2012,05,02,14,16,10.60
2012,05,02,14,17,10.60
2012,05,02,14,18,10.70
2012,05,02,14,19,10.70
2012,05,02,14,20,10.70
2012,05,02,14,21,10.70
2012,05,02,14,22,10.70
2012,05,02,14,23,10.70
2012,05,02,14,24,10.70
2012,05,02,14,25,10.70
2012,05,02,14,26,10.70
2012,05,02,14,27,10.60
2012,05,02,14,28,10.70
2012,05,02,14,29,10.70
2012,05,02,14,30,10.60
2012,05,02,14,31,10.60
2012,05,02,14,32,10.60
2012,05,02,14,33,10.60
2012,05,02,14,34,10.60
2012,05,02,14,35,10.60
2012,05,02,14,36,10.60
2012,05,02,14,37,10.60
2012,05,02,14,38,10.60
2012,05,02,14,39,10.60
2012,05,02,14,40,10.60
2012,05,02,14,41,10.60
2012,05,02,14,42,10.70
2012,05,02,14,43,10.70
2012,05,02,14,44,10.70
2012,05,02,14,45,10.70
2012,05,02,14,46,10.70
2012,05,02,14,47,10.60
2012,05,02,14,48,10.60
2012,05,02,14,49,10.60
2012,05,02,14,50,10.50
2012,05,02,14,51,10.50
2012,05,02,14,52,10.40
2012,05,02,14,53,10.40
2012,05,02,14,54,10.40
2012,05,02,14,55,10.40
2012,05,02,14,56,10.40
2012,05,02,14,57,10.40
2012,05,02,14,58,10.40
2012,05,02,14,59,10.40
2012,05,02,15,00,10.30
2012,05,02,15,01,10.30
2012,05,02,15,02,10.30
2012,05,02,15,03,10.30
2012,05,02,15,04,10.30
2012,05,02,15,05,10.20
2012,05,02,15,06,10.20
2012,05,02,15,07,10.20
2012,05,02,15,08,10.20
2012,05,02,15,09,10.20
2012,05,02,15,10,10.20
2012,05,02,15,11,10.30
2012,05,02,15,12,10.30
2012,05,02,15,13,10.30
2012,05,02,15,14,10.30
2012,05,02,15,15,10.40
2012,05,02,15,16,10.40
2012,05,02,15,17,10.50
2012,05,02,15,18,10.60
2012,05,02,15,19,10.60
2012,05,02,15,20,10.70
2012,05,02,15,21,10.70
2012,05,02,15,22,10.80
2012,05,02,15,23,10.80
2012,05,02,15,24,10.80
2012,05,02,15,25,10.90
2012,05,02,15,26,10.90
2012,05,02,15,27,10.90
2012,05,02,15,28,10.90
2012,05,02,15,29,10.90
2012,05,02,15,30,10.90
2012,05,02,15,31,10.90
2012,05,02,15,32,10.90
2012,05,02,15,33,11.00
2012,05,02,15,34,11.00
2012,05,02,15,35,11.00
2012,05,02,15,36,11.00
2012,05,02,15,37,11.00
2012,05,02,15,38,11.00
2012,05,02,15,39,11.00
2012,05,02,15,40,11.10
2012,05,02,15,41,11.10
2012,05,02,15,42,11.10
2012,05,02,15,43,11.10
2012,05,02,15,44,11.10
2012,05,02,15,45,11.10
2012,05,02,15,46,11.10
2012,05,02,15,47,11.10
2012,05,02,15,48,11.10
2012,05,02,15,49,11.10
2012,05,02,15,50,11.10
2012,05,02,15,51,11.10
2012,05,02,15,52,11.10
2012,05,02,15,53,11.10
2012,05,02,15,54,11.10
2012,05,02,15,55,11.10
2012,05,02,15,56,11.10
2012,05,02,15,57,11.10
2012,05,02,15,58,11.20
2012,05,02,15,59,11.20
2012,05,02,16,00,11.20
2012,05,02,16,01,11.20
2012,05,02,16,02,11.30
2012,05,02,16,03,11.30
2012,05,02,16,04,11.30
2012,05,02,16,05,11.30
2012,05,02,16,06,11.30
2012,05,02,16,07,11.30
2012,05,02,16,08,11.30
2012,05,02,16,09,11.30
2012,05,02,16,10,11.40
2012,05,02,16,11,11.40
2012,05,02,16,12,11.50
2012,05,02,16,13,11.60
2012,05,02,16,14,11.70
2012,05,02,16,15,11.70
2012,05,02,16,16,11.80
2012,05,02,16,17,11.80
2012,05,02,16,18,11.80
2012,05,02,16,19,11.80
2012,05,02,16,20,11.80
2012,05,02,16,21,11.80
2012,05,02,16,22,11.80
2012,05,02,16,23,11.80
2012,05,02,16,24,11.90
2012,05,02,16,25,12.00
2012,05,02,16,26,12.00
2012,05,02,16,27,12.10
2012,05,02,16,28,12.20
2012,05,02,16,29,12.30
2012,05,02,16,30,12.40
2012,05,02,16,31,12.40
2012,05,02,16,32,12.40
2012,05,02,16,33,12.40
2012,05,02,16,34,12.40
2012,05,02,16,35,12.40
2012,05,02,16,36,12.40
2012,05,02,16,37,12.40
2012,05,02,16,38,12.30
2012,05,02,16,39,12.20
2012,05,02,16,40,12.20
2012,05,02,16,41,12.10
2012,05,02,16,42,12.10
2012,05,02,16,43,12.00
2012,05,02,16,44,11.90
2012,05,02,16,45,11.90
2012,05,02,16,46,11.90
2012,05,02,16,47,11.80
2012,05,02,16,48,11.80
2012,05,02,16,49,11.80
2012,05,02,16,50,11.80
2012,05,02,16,51,11.70
2012,05,02,16,52,11.70
2012,05,02,16,53,11.60
2012,05,02,16,54,11.50
2012,05,02,16,55,11.40
2012,05,02,16,56,11.30
2012,05,02,16,57,11.30
2012,05,02,16,58,11.20
2012,05,02,16,59,11.20
2012,05,02,17,00,11.20
2012,05,02,17,01,11.10
2012,05,02,17,02,11.10
2012,05,02,17,03,11.10
2012,05,02,17,04,11.10
2012,05,02,17,05,11.10
2012,05,02,17,06,11.20
2012,05,02,17,07,11.20
2012,05,02,17,08,11.20
2012,05,02,17,09,11.10
2012,05,02,17,10,11.10
2012,05,02,17,11,11.10
2012,05,02,17,12,11.10
2012,05,02,17,13,11.10
2012,05,02,17,14,11.00
2012,05,02,17,15,11.00
2012,05,02,17,16,11.00
2012,05,02,17,17,11.00
2012,05,02,17,18,11.10
2012,05,02,17,19,11.10
2012,05,02,17,20,11.10
2012,05,02,17,21,11.10
2012,05,02,17,22,11.20
2012,05,02,17,23,11.20
2012,05,02,17,24,11.20
2012,05,02,17,25,11.30
2012,05,02,17,26,11.30
2012,05,02,17,27,11.30
2012,05,02,17,28,11.30
2012,05,02,17,29,11.40
2012,05,02,17,30,11.40
2012,05,02,17,31,11.40
2012,05,02,17,32,11.40
2012,05,02,17,33,11.40
2012,05,02,17,34,11.40
2012,05,02,17,35,11.40
2012,05,02,17,36,11.40
2012,05,02,17,37,11.40
2012,05,02,17,38,11.40
2012,05,02,17,39,11.40
2012,05,02,17,40,11.40
2012,05,02,17,41,11.40
2012,05,02,17,42,11.40
2012,05,02,17,43,11.40
2012,05,02,17,44,11.40
2012,05,02,17,45,11.40
2012,05,02,17,46,11.40
2012,05,02,17,47,11.50
2012,05,02,17,48,11.60
2012,05,02,17,49,11.60
2012,05,02,17,50,11.70
2012,05,02,17,51,11.80
2012,05,02,17,52,11.80
2012,05,02,17,53,11.80
2012,05,02,17,54,11.80